Regional Weather Roundup
Issued by NWS

Home | Current Version | Previous Version | Text Only | Print | Product List | Glossary Off
Versions: 1 2 3 4 5 6 7 8 9 10 11 12 13 14 15 16 17 18 19 20 21 22 23 24 25 26 27 28 29 30 31 32 33 34 35 36 37 38 39 40 41 42 43 44 45 46 47 48 49 50

000
ASUS43 KLSX 181407
RWRMO

WEATHER SUMMARY FOR MISSOURI
NATIONAL WEATHER SERVICE SPRINGFIELD MO
900 AM CDT FRI AUG 18 2017

NOTE: "FAIR" INDICATES FEW OR NO CLOUDS BELOW 12,000 FEET WITH NO
       SIGNIFICANT WEATHER AND/OR OBSTRUCTIONS TO VISIBILITY.
       CURRENT SKY AND/OR WEATHER CONDITIONS ARE NOT AVAILABLE FOR
       CHILLICOTHE AND FARMINGTON.

MOZ001>031-035>038-043-044-053-054-181500-
...NORTHERN AND WESTERN MISSOURI...

CITY           SKY/WX    TMP DP  RH WIND       PRES   REMARKS
KANSAS CTY INT PTSUNNY   69  65  86 S7        29.96F
KANSAS C DTWN  MOSUNNY   75  66  73 S6        29.96S
LEE`S SUMMIT   MOSUNNY   72  65  78 MISG      29.99S
ST JOSEPH      CLOUDY    68  66  93 CALM      29.94F
CHILLICOTHE      N/A     68  65  90 S5        29.97S
KIRKSVILLE     MOSUNNY   71  63  75 CALM      29.98S

$$
MOZ066>068-077>081-088>096-101>105-181500-
...SOUTHWEST MISSOURI...

CITY           SKY/WX    TMP DP  RH WIND       PRES   REMARKS
SPRINGFIELD    CLOUDY    72  66  81 S7        30.02F
JOPLIN         CLOUDY    73  72  96 S8        30.01S
BRANSON        MOSUNNY   75  70  83 SW3       30.07R

$$
MOZ032>034-039>042-045>050-055>058-069>072-181500-
...CENTRAL MISSOURI...

CITY           SKY/WX    TMP DP  RH WIND       PRES   REMARKS
COLUMBIA       SUNNY     73  65  75 W6        30.00R
JEFFERSON CITY SUNNY     72  67  84 CALM      29.99S
ROLLA          SUNNY     72  64  76 W7        30.03R
SEDALIA        SUNNY     74  67  78 CALM      30.00S
WHITEMAN AFB   PTSUNNY   73  67  81 W5        29.98R
WARRENSBURG    PTSUNNY   70  64  83 S5        29.99R
OSAGE BEACH    SUNNY     69  63  81 W6        30.02S

$$
MOZ051-052-059>065-181500-
...EAST CENTRAL MISSOURI...

CITY           SKY/WX    TMP DP  RH WIND       PRES   REMARKS
ST LOUIS INTL  MOSUNNY   75  64  68 W7        29.98R
SPIRIT OF STL  SUNNY     72  67  84 W5        29.98R
ST CHARLES     SUNNY     71  64  78 NW7       29.96R

$$
MOZ072>076-082>087-097>100-106>115-181500-
...SOUTH CENTRAL AND SOUTHEAST MISSOURI...

CITY           SKY/WX    TMP DP  RH WIND       PRES   REMARKS
CAPE GIRARDEAU SUNNY     72  67  84 W7        29.99R
FARMINGTON     SUNNY     73  64  73 W5        30.02R
POPLAR BLUFF   SUNNY     74  69  85 NW6       30.00S
WEST PLAINS    SUNNY     71  65  81 W6        30.06R

$$


USA.gov is the U.S. government's official web portal to all federal, state and local government web resources and services.